Flag for China Weather past 2 weeks in Nanjing, Jiangsu, China

Now
34 °F

Clear.


Feels Like: 27 °F
Forecast: 26 / 39 °F
Wind: 8 mph from East

Location: Nanjing

Current Time: Feb 1, 2015 at 5:42:01 AM

Latest Report: Feb 1, 2015 at 5:00 AM


Visibility: 10 mi

Pressure: 30.57 "Hg

Humidity: 75%

Dew point: 27 °F

Location of NanjingLocation

Historic Weather in Nanjing — Graph

°F

Nanjing temperature yesterday

Maximum temperature yesterday: 39 °F (at 1:00 PM)
Minimum temperature yesterday: 30 °F (at 4:00 AM)
Average temperature yesterday: 35 °F

Past Weeks' High & Low Weather Summary

 TemperatureHumidityPressure
High59 °F (Jan 24, 2:00 PM)100% (Jan 18, 8:00 AM)30.69 "Hg (Jan 18, 8:00 AM)
Low25 °F (Jan 23, 5:00 AM)18% (Jan 19, 3:00 PM)30.07 "Hg (Jan 24, 2:00 PM)
Average40 °F77%30.33 "Hg
* Reported Jan 17 4:00 AM — Feb 1 4:00 AM, Nanjing, Weather by CustomWeather, © 2014

Note: Actual official high and low records may vary slightly from our data, if they occured in-between our weather recording intervals... More about our weather records

Advertising

Nanjing weather history for previous 24 hours

 ConditionsComfort  
Time TempWeatherWind HumidityBarometerVisibility
4:00 AM
Feb 1
34 °FClear.10 mph75%30.57 "Hg10 mi
3:00 AM34 °FClear.6 mph81%30.57 "Hg10 mi
2:00 AM34 °FClear.3 mph75%30.60 "Hg10 mi
1:00 AM36 °FClear.8 mph70%30.60 "Hg10 mi
12:00 AM36 °FClear.6 mph70%30.60 "Hg10 mi
11:00 PM
Jan 31
36 °FPassing clouds.3 mph70%30.60 "HgN/A
10:00 PM36 °FClear.3 mph65%30.60 "Hg10 mi
9:00 PM36 °FPassing clouds.3 mph65%30.63 "HgN/A
8:00 PM36 °FClear.1 mph60%30.60 "Hg10 mi
7:00 PM37 °FPassing clouds.6 mph56%30.60 "HgN/A
6:00 PM37 °FClear.3 mph52%30.60 "Hg10 mi
5:00 PM37 °FSunny.3 mph52%30.60 "Hg10 mi
4:00 PM39 °FPassing clouds.3 mph48%30.57 "HgN/A
3:00 PM37 °FPassing clouds.3 mph48%30.57 "HgN/A
2:00 PM39 °FPassing clouds.3 mph45%30.57 "HgN/A
1:00 PM39 °FPassing clouds.8 mph48%30.60 "HgN/A
12:00 PM37 °FPassing clouds.6 mph52%30.63 "HgN/A
11:00 AM36 °FSunny.8 mph65%30.66 "Hg10 mi
10:00 AM36 °FPassing clouds.8 mph65%30.69 "HgN/A
9:00 AM34 °FPassing clouds.6 mph70%30.66 "HgN/A
8:00 AM32 °FSunny.6 mph75%30.66 "Hg10 mi
7:00 AM32 °FClear.3 mph75%30.63 "Hg5 mi
6:00 AM32 °FClear.3 mph69%30.57 "Hg4 mi
5:00 AM32 °FClear.1 mph69%30.57 "Hg10 mi
Weather by CustomWeather, © 2014

See weather overviewHow to use our weather pages